Weather History for Fort Payne, AL

Change the Weather History Date:

Friday, June 28, 2013

  Actual Average (KRMG) Record (KRMG)
Temperature  
Mean Temperature 78 °F 78 °F  
Max Temperature 87 °F 89 °F 102 °F (2012)
Min Temperature 68 °F 67 °F 57 °F (2012)
Cooling Degree Days 12 13  
Month to date cooling degree days 302  
Year to date cooling degree days 470  
Since 1 June cooling degree days 302  
Growing Degree Days 28 (Base 50)    
Moisture  
Dew Point 67 °F    
Average Humidity 75    
Maximum Humidity 94    
Minimum Humidity 40    
Precipitation  
Precipitation 0.00 in 0.15 in 0.76 in (2001)
Month to date precipitation 3.79  
Year to date precipitation 26.66  
Sea Level Pressure  
Sea Level Pressure 29.80 in    
Wind  
Wind Speed 3 mph (West)    
Max Wind Speed 16 mph    
Max Gust Speed 24 mph    
Visibility 8 miles    
Events Fog    
T = Trace of Precipitation, MM = Missing Value Source: NWS Daily Summary

Daily Weather History Graph

Daily Weather History Graph

Search for Another Location

Airport:

Trip Planner

Search our weather history database for the weather conditions in past years. The results will help you decide how hot, cold, wet, or windy it might be!

Date:

Astronomy

Jun. 28, 2013 Rise Set
Actual Time 5:32 AM CDT 7:59 PM CDT
Civil Twilight 5:03 AM CDT 8:28 PM CDT
Nautical Twilight 4:27 AM CDT 9:05 PM CDT
Astronomical Twilight 3:47 AM CDT 9:44 PM CDT
Moon 11:45 PM CDT (6/28) 11:23 AM CDT (6/28)
Length of Visible Light 15h 25m
Length of Day
14h 26m
Waning Gibbous, 66% of the Moon is Illuminated
Jun 28
Waning Gibbous
Jun 29
Last Quarter
Jul 8
New
Jul 15
First Quarter
Jul 22
Full

Hourly Weather History & Observations

Time (CDT) Temp. Heat Index Dew Point Humidity Pressure Visibility Wind Dir Wind Speed Gust Speed Precip Events Conditions
12:15 AM 71.6 °F - 68.0 °F 88% 29.87 in 7.0 mi Calm Calm - N/A   Clear
12:35 AM 71.6 °F - 68.0 °F 88% 29.87 in 5.0 mi Calm Calm - N/A   Clear
12:55 AM 69.8 °F - 68.0 °F 94% 29.87 in 7.0 mi Calm Calm - N/A   Clear
1:15 AM 69.8 °F - 68.0 °F 94% 29.87 in 7.0 mi Calm Calm - N/A   Clear
1:35 AM 69.8 °F - 68.0 °F 94% 29.88 in 5.0 mi Calm Calm - N/A   Scattered Clouds
1:55 AM 69.8 °F - 68.0 °F 94% 29.88 in 5.0 mi Calm Calm - N/A   Clear
2:15 AM 69.8 °F - 68.0 °F 94% 29.88 in 5.0 mi Calm Calm - N/A   Clear
2:35 AM 69.8 °F - 68.0 °F 94% 29.86 in 5.0 mi Calm Calm - N/A   Scattered Clouds
2:55 AM 69.8 °F - 66.2 °F 88% 29.86 in 1.5 mi Calm Calm - N/A   Mostly Cloudy
3:15 AM 69.8 °F - 68.0 °F 94% 29.85 in 0.8 mi Calm Calm - N/A   Overcast
3:35 AM 69.8 °F - 66.2 °F 88% 29.85 in 0.2 mi Calm Calm - N/A Fog Fog
3:55 AM 68.0 °F - 66.2 °F 94% 29.86 in 0.2 mi Calm Calm - N/A Fog Fog
4:15 AM 68.0 °F - 66.2 °F 94% 29.85 in 0.2 mi Calm Calm - N/A Fog Fog
4:35 AM 68.0 °F - 66.2 °F 94% 29.85 in 0.2 mi Calm Calm - N/A Fog Fog
4:55 AM 68.0 °F - 66.2 °F 94% 29.85 in 0.5 mi Calm Calm - N/A Fog Fog
5:15 AM 68.0 °F - 66.2 °F 94% 29.85 in 0.2 mi Calm Calm - N/A Fog Fog
5:35 AM 68.0 °F - 66.2 °F 94% 29.86 in 0.5 mi Calm Calm - N/A Fog Fog
5:55 AM 68.0 °F - 66.2 °F 94% 29.86 in 0.2 mi Calm Calm - N/A Fog Fog
6:15 AM - - - N/A% 29.87 in 0.2 mi Calm Calm - N/A Fog Fog
6:35 AM - - - N/A% 29.87 in 0.5 mi Calm Calm - N/A Fog Fog
6:55 AM 68.0 °F - 66.2 °F 94% 29.88 in 1.0 mi Calm Calm - N/A   Overcast
7:55 AM 71.6 °F - 69.8 °F 94% 29.87 in 5.0 mi SSW 3.5 mph - N/A   Clear
8:15 AM 73.4 °F - 71.6 °F 94% 29.86 in 7.0 mi WSW 3.5 mph - N/A   Clear
8:35 AM 75.2 °F - 71.6 °F 89% 29.85 in 7.0 mi WSW 3.5 mph - N/A   Clear
8:55 AM 77.0 °F - 73.4 °F 89% 29.84 in 10.0 mi SSW 3.5 mph - N/A   Clear
9:15 AM 78.8 °F - 73.4 °F 83% 29.83 in 10.0 mi SW 3.5 mph - N/A   Clear
9:35 AM 80.6 °F 85.4 °F 73.4 °F 79% 29.82 in 10.0 mi WSW 3.5 mph - N/A   Clear
9:55 AM 82.4 °F 88.2 °F 73.4 °F 74% 29.82 in 10.0 mi SW 5.8 mph - N/A   Clear
10:15 AM 84.2 °F 90.9 °F 73.4 °F 70% 29.83 in 10.0 mi SW 9.2 mph - N/A   Clear
10:35 AM 86.0 °F 91.8 °F 71.6 °F 62% 29.83 in 10.0 mi WNW 9.2 mph - N/A   Clear
10:55 AM 86.0 °F 90.4 °F 69.8 °F 58% 29.84 in 10.0 mi WNW 10.4 mph 18.4 mph N/A   Clear
11:15 AM 86.0 °F 89.4 °F 68.0 °F 55% 29.84 in 10.0 mi West 13.8 mph 18.4 mph N/A   Clear
11:35 AM 86.0 °F 89.4 °F 68.0 °F 55% 29.84 in 10.0 mi West 6.9 mph 16.1 mph N/A   Clear
11:55 AM 86.0 °F 90.4 °F 69.8 °F 58% 29.82 in 10.0 mi West 8.1 mph - N/A   Clear
12:15 PM 86.0 °F 90.4 °F 69.8 °F 58% 29.81 in 10.0 mi West 8.1 mph 20.7 mph N/A   Clear
12:35 PM 86.0 °F 89.4 °F 68.0 °F 55% 29.79 in 10.0 mi WSW 5.8 mph - N/A   Clear
12:55 PM 86.0 °F 89.4 °F 68.0 °F 55% 29.78 in 10.0 mi West 5.8 mph - N/A   Clear
1:15 PM 86.0 °F 89.4 °F 68.0 °F 55% 29.78 in 10.0 mi West 9.2 mph - N/A   Clear
1:35 PM - - - N/A% 29.78 in 10.0 mi West 13.8 mph - N/A   Scattered Clouds
1:55 PM 87.8 °F 89.4 °F 64.4 °F 46% 29.77 in 10.0 mi WSW 11.5 mph - N/A   Clear
2:15 PM - - - N/A% 29.76 in 10.0 mi West 10.4 mph 24.2 mph N/A   Clear
2:35 PM - - - N/A% 29.76 in 10.0 mi West 8.1 mph 16.1 mph N/A   Clear
2:55 PM 86.0 °F 86.6 °F 62.6 °F 45% 29.75 in 10.0 mi West 15.0 mph 19.6 mph N/A   Clear
3:15 PM 87.8 °F 87.6 °F 60.8 °F 40% 29.74 in 10.0 mi WNW 11.5 mph 16.1 mph N/A   Clear
3:35 PM 86.0 °F 86.1 °F 60.8 °F 43% 29.74 in 10.0 mi WNW 11.5 mph 21.9 mph N/A   Clear
3:55 PM 86.0 °F 86.6 °F 62.6 °F 45% 29.73 in 10.0 mi WNW 13.8 mph - N/A   Clear
4:15 PM - - - N/A% 29.73 in 10.0 mi West 16.1 mph 21.9 mph N/A   Clear
4:35 PM - - - N/A% 29.73 in 10.0 mi West 11.5 mph 21.9 mph N/A   Clear
4:55 PM 86.0 °F 86.6 °F 62.6 °F 45% 29.73 in 10.0 mi West 9.2 mph - N/A   Clear
5:15 PM 82.4 °F 83.9 °F 64.4 °F 54% 29.72 in 10.0 mi West 11.5 mph 16.1 mph N/A   Clear
5:35 PM 82.4 °F 83.4 °F 62.6 °F 51% 29.72 in 10.0 mi West 9.2 mph - N/A   Clear
5:55 PM 82.4 °F 83.4 °F 62.6 °F 51% 29.72 in 10.0 mi West 9.2 mph - N/A   Scattered Clouds
6:15 PM 82.4 °F 83.9 °F 64.4 °F 54% 29.72 in 10.0 mi West 9.2 mph - N/A   Scattered Clouds
6:35 PM 82.4 °F 83.9 °F 64.4 °F 54% 29.72 in 10.0 mi WSW 9.2 mph - N/A   Clear
6:55 PM 80.6 °F 82.3 °F 64.4 °F 58% 29.73 in 10.0 mi West 5.8 mph - N/A   Clear
7:15 PM 80.6 °F 82.3 °F 64.4 °F 58% 29.74 in 10.0 mi West 3.5 mph - N/A   Scattered Clouds
7:35 PM 80.6 °F 82.3 °F 64.4 °F 58% 29.74 in 10.0 mi Calm Calm - N/A   Scattered Clouds
7:55 PM 80.6 °F 82.7 °F 66.2 °F 61% 29.74 in 10.0 mi WSW 3.5 mph - N/A   Scattered Clouds
8:15 PM 77.0 °F - 68.0 °F 74% 29.75 in 10.0 mi Calm Calm - N/A   Scattered Clouds
8:35 PM 77.0 °F - 68.0 °F 74% 29.74 in 10.0 mi Calm Calm - N/A   Scattered Clouds
8:55 PM 75.2 °F - 68.0 °F 78% 29.75 in 10.0 mi Calm Calm - N/A   Scattered Clouds
9:15 PM 73.4 °F - 68.0 °F 83% 29.76 in 10.0 mi Calm Calm - N/A   Scattered Clouds
9:35 PM 73.4 °F - 68.0 °F 83% 29.76 in 10.0 mi Calm Calm - N/A   Clear
9:55 PM 71.6 °F - 68.0 °F 88% 29.77 in 10.0 mi Calm Calm - N/A   Clear
10:15 PM 73.4 °F - 68.0 °F 83% 29.77 in 10.0 mi Calm Calm - N/A   Clear
10:35 PM 71.6 °F - 68.0 °F 88% 29.76 in 10.0 mi Calm Calm - N/A   Scattered Clouds
10:55 PM 71.6 °F - 68.0 °F 88% 29.76 in 10.0 mi Calm Calm - N/A   Scattered Clouds
11:15 PM 71.6 °F - 68.0 °F 88% 29.76 in 10.0 mi Calm Calm - N/A   Scattered Clouds
11:35 PM 71.6 °F - 68.0 °F 88% 29.75 in 10.0 mi Calm Calm - N/A   Clear
11:55 PM 69.8 °F - 68.0 °F 94% 29.74 in 10.0 mi Calm Calm - N/A   Clear